THORAD AGENA D DEB

Satellite information

Favourite Embed

Satellite Type and Status

DEBRISIN ORBIT

Key statistics

Satellite THORAD AGENA D DEB at a glance.

Uptime

20338

Days in orbit

Revolutions

≈ 14.1

Per day

Orbit

SSO

Sun Synchronous Orbit

Inclination

99.8

Latest

Satellite identification and parameters

Extended collection of information and parameters for THORAD AGENA D DEB.

Object identification

Identified? True

Debris? True

Object name: THORAD AGENA D DEB

International designator: 1970-025AJ

Object number (NORAD): 4650

Object ID (CCSDS): 4650

Country: UNITED STATES OF AMERICA (US)

Current information (Y/N): Y

RCS size: SMALL

Orbital parameters

Period: 102.082 minutes

Inclination: 99.8309 deg

SMA: 7235.347 km

Apoapsis: 939.849 km

Periapsis: 774.575 km

RAAN: 91.2542 deg

Eccentricy: 0.01142132

Argument of periapsis: 244.4415 deg

Mean anomaly: 114.491 deg

Mean motion: 14.10631974 rev/day

Mean motion (dot): 0.00002112 rev/day2

B* drag term: 0.0011409122 1/REarth

Two-line elements (TLE)

Creation date: Dec. 12, 2025, 10:14 a.m.

Reference frame: TEME

Reference center: EARTH

Epoch: Dec. 12, 2025, 6:21 a.m. UTC

TLE line 0: 0 THORAD AGENA D DEB

TLE line 1: 1 04650U 70025AJ 25346.26470458 .00002112 00000-0 11409-2 0 9998

TLE line 2: 2 04650 99.8309 91.2542 0114213 244.4415 114.4910 14.10631974831338

Live tracking on map

Real-time ground track for satellite THORAD AGENA D DEB.

In-orbit conjunctions

A list of the most updated potential collisions computed for object THORAD AGENA D DEB.

Target Orbit TCA Probability of collision Miss distance Type
COSMOS 836 LEO 2025-07-26 16:42:51 0.0003954595 478.0 (m) PAYLOAD
SL-16 DEB LEO 2025-03-11 14:12:15 0.000101482 71.0 (m) DEBRIS
THORAD AGENA D DEB SSO 2024-10-01 19:29:22 0.0003069453 65.0 (m) DEBRIS
COSMOS 1992 LEO 2024-07-23 23:40:06 0.0006556909 92.0 (m) PAYLOAD

Associated space launch

Meteorological research and development satellite

THORAD AGENA D DEB was lifted into orbit during the mission ‘Thorad SLV-2G Agena D | Nimbus 4’, on board a Thorad SLV-2G Agena D space rocket.

The launch took place on April 8, 1970, 8:17 a.m. from Space Launch Complex 2E.

For more information about the launch, click the button.

Launch to space Thorad SLV-2G Agena D | Nimbus 4
Thorad SLV-2G Agena D | Nimbus 4

Agency: N/A

Status: Launch Successful

Launch date: April 8, 1970, 8:17 a.m. UTC

Rocket: Thorad SLV-2G Agena D

Launch pad: Space Launch Complex 2E

Location: Vandenberg SFB, CA, USA

...

Latest news about this satellite

There are no fresh news available about this satellite. Check back as we update our databases every day.


Newsletter sign-up

Weekly statistics, charts and insights to help you stay on top of the space industry.